Terminal Aerodrome Forecast
Issued by NWS Cleveland, OH

Home | Current Version | Previous Version | Graphics & Text | Print | Product List | Glossary On
Versions: 1 2 3 4 5 6 7 8 9 10 11 12 13 14 15 16 17 18 19 20 21 22 23 24 25 26 27 28 29 30 31 32
000
FTUS41 KCLE 250524
TAFCLE
TAF
KCLE 250524Z 2506/2612 18005KT P6SM FEW250
     FM251500 23010KT P6SM SCT050 BKN120
     FM260400 26005KT P6SM BKN040 OVC120=

USA.gov is the U.S. government's official web portal to all federal, state and local government web resources and services.